Погода в Буграх

Россия / Санкт-Петербург и Ленинградская область     60°04′11″N   30°23′59″E
темп.,
°C
ветер,
м/с
пор.,
м/с
влажн.,
%
обл.,
%
осадки,
мм/ч
давл.,
гПа
погр.,
м
31 июля, сб
сб3100:00+15ю312705 0.0 997373
03:00+13ююв31082100 0.2 995333
06:00+14ююз51192100 0.9 994893
09:00+15юз51192100 3.5 9931052
12:00+17з7128636 1.9 9961055
15:00+20з711625 2.6 9981270
18:00+20з511560 0.0 9991312
21:00+16зюз2572100 0.0 100199
1 августа, вс
вс100:00+17ююз24715 0.0 100197
03:00+13ююз279817 0.0 1002167
06:00+14ююз3896100 0.0 1002279
09:00+17ююв3691100 0.6 1002323
12:00+18ююз488914 2.4 1001550
15:00+22юз4968100 5.0 10001696
18:00+20юз511759 0.9 10011025
21:00+17зюз4128356 1.3 1002739
2 августа, пн
пн200:00+16юз4109393 0.0 1003535
03:00+14юз389740 0.1 1004275
06:00+13ююз399454 0.0 1004283
09:00+18юз476496 0.0 1005820
12:00+22юз2552100 0.0 10031632
15:00+20ю2375100 0.6 1002131
18:00+16ю2697100 3.8 1002259
21:00+15юз0199100 7.1 100024
3 августа, вт
вт300:00+15з1297100 2.1 100064
03:00+15з1194100 2.3 99917
06:00+14з38969 1.1 1000290
09:00+17зюз47844 1.3 1001786
12:00+20з575417 0.1 10021654
15:00+19з796168 0.4 10031450
18:00+17з69663 0.1 10051244
21:00+14з488431 0.1 1006467
4 августа, ср
ср400:00+14з2885100 0.1 1008273
03:00+14зсз2374100 0.1 101091
06:00+13с0071100 0.0 101112
09:00+15ююв116699 0.0 1013168
12:00+20зсз243435 0.0 10142476
15:00+21з433135 0.0 10152368
18:00+20зсз223425 0.0 10151301
21:00+14ссз11578 0.0 101611